Springboro, OH

1:12 AM EST on February 09, 2016 (GMT -0500)
Dayton-Wright Brothers

Weather History for KMGY - October, 2013

Change the Weather History Date:

Saturday, October 19, 2013

  Actual Average (KFFO) Record (KFFO)
Temperature  
Mean Temperature 45 °F -  
Max Temperature 51 °F 60 °F 80 °F (2005)
Min Temperature 39 °F 40 °F 29 °F (2015)
Degree Days  
Heating Degree Days 20    
Moisture  
Dew Point 41 °F    
Average Humidity 83    
Maximum Humidity 93    
Minimum Humidity 68    
Precipitation  
Precipitation 0.14 in - - ()
Sea Level Pressure  
Sea Level Pressure 29.90 in    
Wind  
Wind Speed 6 mph (WNW)    
Max Wind Speed 16 mph    
Max Gust Speed 22 mph    
Visibility 8 miles    
Events Rain    
Averages and records for this station are not official NWS values.
T = Trace of Precipitation, MM = Missing Value Source: NWS Daily Summary

Daily Weather History Graph

Daily Weather History Graph

Search for Another Location

Airport or City:

Trip Planner

Search our weather history database for the weather conditions in past years. The results will help you decide how hot, cold, wet, or windy it might be!

Date:

Astronomy

Oct. 19, 2013 Rise Set
Actual Time 7:51 AM EDT 6:51 PM EDT
Civil Twilight 7:24 AM EDT 7:18 PM EDT
Nautical Twilight 6:52 AM EDT 7:50 PM EDT
Astronomical Twilight 6:21 AM EDT 8:21 PM EDT
Moon 7:19 PM EDT (10/19) 8:27 AM EDT (10/19)
Length of Visible Light 11h 54m
Length of Day
11h 00m
Waxing Gibbous, 99% of the Moon is Illuminated
Oct 19
Waxing Gibbous
Oct 26
Last Quarter
Nov 3
New
Nov 10
First Quarter
Nov 17
Full

Hourly Weather History & Observations

Time (EDT) Temp. Windchill Dew Point Humidity Pressure Visibility Wind Dir Wind Speed Gust Speed Precip Events Conditions
12:53 AM 51.1 °F - 43.0 °F 74% 29.94 in 10.0 mi NNW 6.9 mph - N/A   Mostly Cloudy
1:53 AM 50.0 °F - 44.1 °F 80% 29.94 in 9.0 mi North 4.6 mph - N/A   Overcast
2:53 AM 48.0 °F - 43.0 °F 83% 29.93 in 8.0 mi NNE 4.6 mph - N/A   Mostly Cloudy
3:53 AM 48.0 °F - 43.0 °F 83% 29.92 in 8.0 mi NE 3.5 mph - N/A   Mostly Cloudy
4:53 AM 46.0 °F 44.8 °F 41.0 °F 83% 29.91 in 9.0 mi NE 3.5 mph - N/A   Partly Cloudy
5:53 AM 46.0 °F - 41.0 °F 83% 29.87 in 8.0 mi Calm Calm - N/A   Scattered Clouds
6:53 AM 46.0 °F - 42.1 °F 86% 29.86 in 9.0 mi Calm Calm - N/A   Overcast
7:53 AM 46.0 °F 44.8 °F 41.0 °F 83% 29.84 in 10.0 mi North 3.5 mph - N/A   Overcast
8:53 AM 46.9 °F - 42.1 °F 83% 29.86 in 7.0 mi NW 3.5 mph - N/A   Overcast
9:26 AM 46.4 °F 45.2 °F 42.8 °F 87% 29.86 in 5.0 mi NW 3.5 mph - 0.00 in   Overcast
9:35 AM 46.4 °F 44.3 °F 42.8 °F 87% 29.86 in 4.0 mi WNW 4.6 mph - 0.01 in Rain Light Rain
9:53 AM 46.0 °F 43.9 °F 43.0 °F 89% 29.86 in 4.0 mi WNW 4.6 mph - 0.02 in Rain Light Rain
10:34 AM 46.4 °F 40.1 °F 42.8 °F 87% 29.86 in 2.5 mi NW 15.0 mph 19.6 mph 0.05 in Rain Rain
10:49 AM 44.6 °F 38.8 °F 41.0 °F 87% 29.87 in 3.0 mi NW 11.5 mph 20.7 mph 0.07 in Rain Light Rain
10:53 AM 44.1 °F 36.8 °F 41.0 °F 89% 29.88 in 4.0 mi WNW 16.1 mph 21.9 mph 0.08 in Rain Light Rain
11:03 AM 44.6 °F 39.2 °F 41.0 °F 87% 29.86 in 6.0 mi NW 10.4 mph - 0.00 in Rain Light Rain
11:53 AM 45.0 °F 41.2 °F 42.1 °F 90% 29.85 in 7.0 mi NNW 6.9 mph - 0.02 in Rain Light Rain
12:15 PM 44.6 °F 41.4 °F 42.8 °F 93% 29.86 in 10.0 mi NW 5.8 mph - 0.00 in   Overcast
12:30 PM 44.6 °F 40.7 °F 41.0 °F 87% 29.86 in 10.0 mi NW 6.9 mph - 0.00 in Rain Light Rain
12:45 PM 46.4 °F 41.9 °F 41.0 °F 81% 29.87 in 10.0 mi West 9.2 mph - 0.01 in Rain Light Rain
12:49 PM 44.6 °F 40.2 °F 41.0 °F 87% 29.87 in 10.0 mi WNW 8.1 mph - 0.01 in Rain Light Rain
12:53 PM 45.0 °F 40.1 °F 41.0 °F 86% 29.88 in 10.0 mi WNW 9.2 mph - 0.01 in Rain Light Rain
1:03 PM 44.6 °F 39.7 °F 41.0 °F 87% 29.87 in 10.0 mi WNW 9.2 mph - 0.00 in Rain Light Rain
1:10 PM 44.6 °F 39.7 °F 41.0 °F 87% 29.88 in 10.0 mi West 9.2 mph - 0.00 in Rain Light Rain
1:53 PM 45.0 °F 40.6 °F 41.0 °F 86% 29.88 in 10.0 mi West 8.1 mph - 0.01 in   Overcast
2:32 PM 46.4 °F 41.5 °F 41.0 °F 81% 29.87 in 10.0 mi West 10.4 mph - N/A   Overcast
2:53 PM 46.0 °F 42.5 °F 41.0 °F 83% 29.88 in 10.0 mi West 6.9 mph - N/A   Overcast
3:53 PM 48.9 °F - 39.9 °F 71% 29.89 in 10.0 mi West 8.1 mph - N/A   Overcast
4:02 PM 48.2 °F - 39.2 °F 71% 29.89 in 10.0 mi West 11.5 mph - N/A   Overcast
4:53 PM 48.0 °F - 37.9 °F 68% 29.91 in 10.0 mi West 9.2 mph - N/A   Overcast
5:53 PM 48.0 °F - 37.9 °F 68% 29.92 in 10.0 mi WSW 6.9 mph - N/A   Partly Cloudy
6:53 PM 46.0 °F 43.1 °F 37.9 °F 73% 29.93 in 10.0 mi SW 5.8 mph - N/A   Scattered Clouds
7:53 PM 41.0 °F 36.4 °F 36.0 °F 82% 29.95 in 10.0 mi SSW 6.9 mph - N/A   Clear
8:53 PM 39.9 °F 35.1 °F 36.0 °F 86% 29.97 in 10.0 mi SSW 6.9 mph - N/A   Clear
9:53 PM 39.9 °F 35.1 °F 36.0 °F 86% 29.98 in 10.0 mi SSW 6.9 mph - N/A   Clear
10:53 PM 39.0 °F 33.4 °F 35.1 °F 86% 29.99 in 10.0 mi SSW 8.1 mph - N/A   Clear
11:53 PM 39.9 °F 34.5 °F 36.0 °F 86% 30.00 in 10.0 mi SSW 8.1 mph - N/A   Clear